Погода в Скрунде

Латвия     56°40′33″N   22°00′59″E
темп.,
°C
ветер,
м/с
пор.,
м/с
влажн.,
%
обл.,
%
осадки,
мм/ч
давл.,
гПа
погр.,
м
27 сентября, пн
пн2700:00+7вюв227621 0.0 102624
03:00+7вюв227676 0.0 102733
06:00+6вюв248656 0.0 102779
09:00+8юв268190 0.0 1028168
12:00+13вюв355687 0.0 1028679
15:00+15вюв344670 0.0 1027968
18:00+13вюв36595 0.0 1027464
21:00+8вюв310835 0.0 1027247
28 сентября, вт
вт2800:00+7вюв210915 0.0 1028232
03:00+6юв29965 0.0 1028196
06:00+6юв310960 0.0 1028234
09:00+7юв310850 0.0 1029301
12:00+13юв48600 0.0 1029862
15:00+15юв56510 0.0 10291248
18:00+13юв37610 0.0 1029649
21:00+8вюв39827 0.0 1030191
29 сентября, ср
ср2900:00+7юв2783100 0.0 1031147
03:00+6юв278394 0.0 1031129
06:00+6юв278557 0.0 1031143
09:00+7юв39825 0.0 1031247
12:00+13юв485899 0.0 1031956
15:00+15юв5853100 0.0 10291611
18:00+13юв596783 0.0 1029943
21:00+11юв41173100 0.0 1029617
30 сентября, чт
чт3000:00+11юв41172100 0.0 1028563
03:00+10юв5126960 0.0 1028673
06:00+8юв513765 0.0 1027568
09:00+9юв514725 0.0 1026637
12:00+13ююв61158100 0.0 1025877
15:00+12ююв51063100 0.0 10251064
18:00+9ю4991100 0.9 1026570
21:00+9ююв3795100 1.1 1026298
1 октября, пт
пт100:00+8ю2498100 0.1 1027117
03:00+7ююв2498100 0.1 102797
06:00+6ююв279710 0.0 1027159
09:00+7ю38940 0.0 1027222
12:00+13ю367245 0.0 1026732
15:00+14ююз465189 0.0 10261383
18:00+12ю3758100 0.0 1025351
21:00+8ююв397794 0.0 1025185